sat.trackr.live / text

‹ back to catalog

STARLINK-3401

NORAD 51465 · 2022-010K

PAYLOAD ACTIVE UNKNOWN

§ Identity

Operator
Country
US
Launch date
2022-02-03
Launch site
AFETR
Launch vehicle
Mass (kg)
RCS (m²)

Purposes: comms

External: N2YO · Heavens-Above · Gunter

§ Orbital elements

Epoch: 2026-09-20T04:00:03.000096Z

Period
93.37 min
Inclination
53.1627°
Eccentricity
0.0001377
Mean motion
15.42294004 rev/d
Perigee alt
438.4 km
Apogee alt
440.3 km
Semi-major
6,817.5 km
B*
1.9790e-3
RAAN
118.6356°
Arg perigee
95.5630°
Mean anomaly
146.0595°
Rev number
588

§ Raw data

STARLINK-34011 51465U 22010K   26263.16670139  .00087079  00000+0  19790-2 0  99962 51465  53.1627 118.6356 0001377  95.5630 146.0595 15.42294004  5885

JSON: /api/v1/satellites/51465 · /tle

For live sub-satellite position, see the globe view (requires WebGL).

§ Visibility from observer

Set your observer location to see the next 7 days of passes ≥ 10°. The values pass through the URL so the page stays shareable.

No JS? Fill the form by hand. The geolocation button needs JavaScript.